• Em Portugal
  • Lista de países
  • Para 7 dias
  • Temperatura da água
  • Mapas de satélite
  • Mapa do tempo
  • Widgets de tempo
  • user-avatar
    Iniciar Sessão

    Previsão horária em Belém

    Hoje, 17 Outubro, Terça-feira

    Tempo Temperatura Precipitação Vento Pressão Humidade
    00:00 +27°C° 0 mm 2 m/s 759 mmHg 86%
    01:00 +26°C° 0 mm 2 m/s 758 mmHg 87%
    02:00 +26°C° 0 mm 2 m/s 758 mmHg 89%
    03:00 +26°C° 0 mm 1 m/s 758 mmHg 90%
    04:00 +26°C° 0 mm 1 m/s 758 mmHg 91%
    05:00 +26°C° 0 mm 2 m/s 758 mmHg 92%
    06:00 +26°C° 0 mm 2 m/s 758 mmHg 92%
    07:00 +27°C° 0 mm 2 m/s 759 mmHg 85%
    08:00 +29°C° 0 mm 2 m/s 759 mmHg 77%
    09:00 +31°C° 0 mm 3 m/s 760 mmHg 71%
    10:00 +31°C° 0,1 mm 3 m/s 759 mmHg 70%
    11:00 +33°C° 0,1 mm 3 m/s 759 mmHg 69%
    12:00 +33°C° 0,1 mm 3 m/s 759 mmHg 67%
    13:00 +33°C° 0,5 mm 3 m/s 758 mmHg 70%
    14:00 +33°C° 0,5 mm 3 m/s 758 mmHg 72%
    15:00 +31°C° 0,5 mm 3 m/s 757 mmHg 75%
    16:00 +30°C° 0,8 mm 2 m/s 758 mmHg 80%
    17:00 +29°C° 0,8 mm 2 m/s 758 mmHg 85%
    18:00 +28°C° 0,8 mm 2 m/s 758 mmHg 90%
    19:00 +27°C° 0,1 mm 2 m/s 758 mmHg 91%
    20:00 +27°C° 0,1 mm 2 m/s 759 mmHg 92%
    21:00 +26°C° 0,1 mm 2 m/s 759 mmHg 92%
    22:00 +26°C° 0,1 mm 2 m/s 759 mmHg 92%
    23:00 +26°C° 0,1 mm 2 m/s 759 mmHg 92%

    Amanhã, 18 Outubro, Quarta-feira

    Tempo Temperatura Precipitação Vento Pressão Humidade
    00:00 +26°C° 0,1 mm 2 m/s 759 mmHg 93%
    01:00 +26°C° 0,1 mm 2 m/s 758 mmHg 93%
    02:00 +26°C° 0,1 mm 2 m/s 758 mmHg 93%
    03:00 +26°C° 0,1 mm 2 m/s 757 mmHg 93%
    04:00 +26°C° 0 mm 2 m/s 757 mmHg 93%
    05:00 +26°C° 0 mm 2 m/s 757 mmHg 93%
    06:00 +26°C° 0 mm 2 m/s 757 mmHg 93%
    07:00 +27°C° 0 mm 2 m/s 758 mmHg 87%
    08:00 +29°C° 0 mm 2 m/s 758 mmHg 80%
    09:00 +30°C° 0 mm 3 m/s 759 mmHg 74%
    10:00 +31°C° 0,1 mm 2 m/s 759 mmHg 70%
    11:00 +32°C° 0,1 mm 2 m/s 759 mmHg 67%
    12:00 +32°C° 0,1 mm 2 m/s 759 mmHg 63%
    13:00 +32°C° 0,7 mm 2 m/s 758 mmHg 66%
    14:00 +32°C° 0,7 mm 2 m/s 757 mmHg 68%
    15:00 +32°C° 0,7 mm 2 m/s 757 mmHg 70%
    16:00 +31°C° 0,8 mm 2 m/s 757 mmHg 77%
    17:00 +29°C° 0,8 mm 2 m/s 757 mmHg 83%
    18:00 +28°C° 0,8 mm 1 m/s 757 mmHg 89%
    19:00 +27°C° 0,6 mm 1 m/s 758 mmHg 90%
    20:00 +27°C° 0,6 mm 2 m/s 758 mmHg 92%
    21:00 +26°C° 0,6 mm 2 m/s 758 mmHg 93%
    22:00 +26°C° 0,1 mm 2 m/s 758 mmHg 93%
    23:00 +26°C° 0,1 mm 2 m/s 758 mmHg 94%

    Depois de amanhã, 19 Outubro, Quinta-feira

    Tempo Temperatura Precipitação Vento Pressão Humidade
    00:00 +26°C° 0,1 mm 2 m/s 758 mmHg 94%
    01:00 +26°C° 0 mm 2 m/s 758 mmHg 94%
    02:00 +25°C° 0 mm 2 m/s 757 mmHg 94%
    03:00 +25°C° 0 mm 2 m/s 757 mmHg 94%
    04:00 +25°C° 0 mm 2 m/s 757 mmHg 94%
    05:00 +25°C° 0 mm 2 m/s 757 mmHg 94%
    06:00 +25°C° 0 mm 2 m/s 757 mmHg 94%
    07:00 +27°C° 0 mm 2 m/s 758 mmHg 87%
    08:00 +28°C° 0 mm 3 m/s 758 mmHg 79%
    09:00 +30°C° 0 mm 3 m/s 759 mmHg 72%
    10:00 +33°C° 0 mm 3 m/s 758 mmHg 65%
    11:00 +34°C° 0 mm 3 m/s 758 mmHg 58%
    12:00 +36°C° 0 mm 3 m/s 758 mmHg 51%
    13:00 +35°C° 0,4 mm 3 m/s 757 mmHg 57%
    14:00 +34°C° 0,4 mm 3 m/s 756 mmHg 62%
    15:00 +34°C° 0,4 mm 3 m/s 755 mmHg 67%
    16:00 +31°C° 0,4 mm 2 m/s 756 mmHg 73%
    17:00 +30°C° 0,4 mm 2 m/s 756 mmHg 80%
    18:00 +28°C° 0,4 mm 1 m/s 756 mmHg 86%
    19:00 +28°C° 0,2 mm 2 m/s 757 mmHg 88%
    20:00 +27°C° 0,2 mm 2 m/s 757 mmHg 90%
    21:00 +27°C° 0,2 mm 2 m/s 758 mmHg 92%
    22:00 +26°C° 0 mm 2 m/s 758 mmHg 92%
    23:00 +26°C° 0 mm 2 m/s 758 mmHg 92%

    20 Outubro, Sexta-feira

    Tempo Temperatura Precipitação Vento Pressão Humidade
    00:00 +26°C° 0 mm 2 m/s 758 mmHg 92%
    01:00 +26°C° 0 mm 2 m/s 757 mmHg 92%
    02:00 +26°C° 0 mm 2 m/s 757 mmHg 92%
    03:00 +25°C° 0 mm 2 m/s 756 mmHg 92%
    04:00 +25°C° 0 mm 2 m/s 756 mmHg 92%
    05:00 +25°C° 0 mm 2 m/s 757 mmHg 92%
    06:00 +25°C° 0 mm 2 m/s 757 mmHg 92%
    07:00 +27°C° 0 mm 2 m/s 757 mmHg 84%
    08:00 +29°C° 0 mm 3 m/s 758 mmHg 77%
    09:00 +30°C° 0 mm 3 m/s 759 mmHg 69%
    10:00 +31°C° 0 mm 3 m/s 758 mmHg 68%
    11:00 +31°C° 0 mm 3 m/s 758 mmHg 66%
    12:00 +31°C° 0 mm 3 m/s 758 mmHg 65%
    13:00 +32°C° 0 mm 2 m/s 757 mmHg 63%
    14:00 +32°C° 0 mm 2 m/s 756 mmHg 62%
    15:00 +32°C° 0 mm 2 m/s 756 mmHg 60%
    16:00 +31°C° 0,1 mm 2 m/s 756 mmHg 67%
    17:00 +30°C° 0,1 mm 1 m/s 756 mmHg 74%
    18:00 +29°C° 0,1 mm 1 m/s 756 mmHg 81%
    19:00 +28°C° 0,1 mm 1 m/s 756 mmHg 84%
    20:00 +27°C° 0,1 mm 2 m/s 757 mmHg 86%
    21:00 +27°C° 0,1 mm 2 m/s 757 mmHg 89%
    22:00 +26°C° 0 mm 2 m/s 757 mmHg 90%
    23:00 +26°C° 0 mm 2 m/s 757 mmHg 90%

    21 Outubro, Sábado

    Tempo Temperatura Precipitação Vento Pressão Humidade
    00:00 +26°C° 0 mm 2 m/s 757 mmHg 90%
    01:00 +26°C° 0 mm 2 m/s 757 mmHg 91%
    02:00 +25°C° 0 mm 2 m/s 756 mmHg 91%
    03:00 +25°C° 0 mm 1 m/s 756 mmHg 92%
    04:00 +25°C° 0 mm 2 m/s 756 mmHg 92%
    05:00 +26°C° 0 mm 2 m/s 756 mmHg 91%
    06:00 +26°C° 0 mm 2 m/s 757 mmHg 91%
    07:00 +27°C° 0 mm 2 m/s 758 mmHg 84%
    08:00 +29°C° 0 mm 2 m/s 758 mmHg 77%
    09:00 +30°C° 0 mm 3 m/s 759 mmHg 70%
    10:00 +31°C° 0,1 mm 3 m/s 759 mmHg 68%
    11:00 +31°C° 0,1 mm 3 m/s 759 mmHg 66%
    12:00 +32°C° 0,1 mm 2 m/s 758 mmHg 63%
    13:00 +32°C° 0,1 mm 2 m/s 758 mmHg 62%
    14:00 +34°C° 0,1 mm 2 m/s 757 mmHg 60%
    15:00 +34°C° 0,1 mm 2 m/s 756 mmHg 59%
    16:00 +32°C° 0,2 mm 2 m/s 756 mmHg 66%
    17:00 +30°C° 0,2 mm 2 m/s 757 mmHg 74%
    18:00 +29°C° 0,2 mm 2 m/s 757 mmHg 81%
    19:00 +28°C° 0 mm 2 m/s 757 mmHg 83%
    20:00 +28°C° 0 mm 2 m/s 758 mmHg 86%
    21:00 +27°C° 0 mm 2 m/s 758 mmHg 88%
    22:00 +27°C° 0 mm 2 m/s 758 mmHg 89%
    23:00 +26°C° 0 mm 2 m/s 758 mmHg 90%

    22 Outubro, Domingo

    Tempo Temperatura Precipitação Vento Pressão Humidade
    00:00 +26°C° 0 mm 2 m/s 757 mmHg 90%
    01:00 +26°C° 0 mm 2 m/s 757 mmHg 91%
    02:00 +26°C° 0 mm 2 m/s 757 mmHg 91%
    03:00 +26°C° 0 mm 2 m/s 756 mmHg 92%
    04:00 +26°C° 0 mm 2 m/s 756 mmHg 92%
    05:00 +26°C° 0 mm 2 m/s 757 mmHg 92%
    06:00 +26°C° 0 mm 2 m/s 757 mmHg 92%
    07:00 +27°C° 0 mm 2 m/s 757 mmHg 84%
    08:00 +29°C° 0 mm 3 m/s 758 mmHg 76%
    09:00 +31°C° 0 mm 3 m/s 758 mmHg 67%
    10:00 +33°C° 0 mm 3 m/s 758 mmHg 61%
    11:00 +35°C° 0 mm 3 m/s 758 mmHg 55%
    12:00 +36°C° 0 mm 3 m/s 757 mmHg 48%
    13:00 +36°C° 0 mm 3 m/s 757 mmHg 49%
    14:00 +36°C° 0 mm 2 m/s 756 mmHg 50%
    15:00 +36°C° 0 mm 2 m/s 755 mmHg 51%
    16:00 +34°C° 0 mm 2 m/s 756 mmHg 58%
    17:00 +32°C° 0 mm 2 m/s 756 mmHg 64%
    18:00 +30°C° 0 mm 2 m/s 756 mmHg 70%
    19:00 +30°C° 0 mm 2 m/s 757 mmHg 72%
    20:00 +29°C° 0 mm 2 m/s 757 mmHg 74%
    21:00 +28°C° 0 mm 3 m/s 758 mmHg 76%
    22:00 +28°C° 0 mm 2 m/s 757 mmHg 78%
    23:00 +27°C° 0 mm 2 m/s 757 mmHg 80%
    Mostrar mais